Regional Weather Roundup
Issued by NWS Bismarck, ND

Home | Current Version | Previous Version | Text Only | Print | Product List | Glossary On
Versions: 1 2 3 4 5 6 7 8 9 10 11 12 13 14 15 16 17 18 19 20 21 22 23 24 25 26 27 28 29 30 31 32 33 34 35 36 37 38 39 40 41 42 43 44 45 46 47 48 49 50
000
ASUS43 KBIS 301302
RWRBIS

NWR BROADCAST TEXT
NATIONAL WEATHER SERVICE BISMARCK ND
800 AM CDT SUN APR 30 2017

NOTE: "FAIR" INDICATES FEW OR NO CLOUDS BELOW 12,000 FEET WITH NO
SIGNIFICANT WEATHER AND/OR OBSTRUCTIONS TO VISIBILITY.


CITY           SKY/WX    TMP DP  RH WIND       PRES   REMARKS
WILLISTON      FAIR      42  28  57 S6        30.03S
MINOT          FAIR      46  23  40 S7        30.04F
MINOT AFB      FAIR      45  25  45 SW10      30.03F
BISMARCK       FAIR      35  28  75 E6        30.10F
DICKINSON      FAIR      38  22  52 SW5       30.04F
GARRISON         N/A     39  27  62 CALM      30.07S
HETTINGER ARPT FAIR      29  23  78 NW3       30.07F
JAMESTOWN      FAIR      41  32  70 N5        30.11S
HAZEN          FAIR      37  23  56 CALM      30.10S
LINTON           N/A     34  28  80 E5        30.11F
MANDAN         FAIR      41  25  52 SE6       30.09F
STANLEY        FAIR      39  28  65 CALM      30.06F
TIOGA          FAIR      41  27  56 S6        30.05S
WATFORD CITY   FAIR      36  25  64 CALM      30.04S
$$

CITY           SKY/WX    TMP DP  RH WIND       PRES   REMARKS
GRAND FORKS    FAIR      44  33  65 SE7       30.14F
GRAND FORKS AF FAIR      43  31  62 S6        30.14F
DEVILS LAKE    FAIR      44  29  55 CALM      30.12F
FARGO          FAIR      43  26  51 E9        30.12F
CAVALIER       FAIR      39  30  70 S7        30.13F
GRAFTON        FAIR      37  34  87 S5        30.16F
GWINNER        SUNNY     41  30  65 MISG      30.11R
LANGDON        FAIR      43  32  65 SW9       30.12F
ROLLA          FAIR      41  28  60 S9        30.08F
$$

CITY           SKY/WX    TMP DP  RH WIND       PRES   REMARKS
ABERDEEN       FAIR      37  30  75 N5        30.09R
MOBRIDGE       FAIR      37  24  59 CALM      30.07S
BUFFALO          N/A     32  22  66 W5        30.00S
RAPID CITY     FAIR      38  23  55 N8        30.06S
GLASGOW        PTSUNNY   42  31  64 SE13      29.93S
SIDNEY         FAIR      37  30  75 S7        30.04S
WOLF POINT     FAIR      34  28  79 N3        29.99S
GLENDIVE       FAIR      38  29  70 S7        30.04S
MILES CITY     FAIR      37  23  56 S12       30.01F
$$

CITY           SKY/WX    TMP DP  RH WIND       PRES   REMARKS
BILLINGS       MOCLDY    42  28  57 SW18      29.98S
GREAT FALLS    CLOUDY    47  29  49 SW16      29.93S
$$





USA.gov is the U.S. government's official web portal to all federal, state and local government web resources and services.